Home > Weather > Korschenbroich > Past weeks

Flag for Germany Weather for the Past 2 Weeks in Korschenbroich, North Rhine-Westphalia, Germany

Now
34 °F

Clear.


Feels Like: 27 °F
Forecast: 34 / 43 °F
Wind: 8 mph from Northeast

Location: Duesseldorf

Current Time: Feb 13, 2016 at 12:29:56 AM

Latest Report: Feb 12, 2016 at 11:20 PM


Visibility: 10 mi

Pressure: 29.42 "Hg

Humidity: 81%

Dew point: 28 °F

Location of KorschenbroichLocation

Historic Weather in Korschenbroich — Graph

°F

Korschenbroich Temperature Yesterday

Maximum temperature yesterday: 43 °F (at 11:50 AM)
Minimum temperature yesterday: 34 °F (at 8:20 PM)
Average temperature yesterday: 39 °F

High & Low Weather Summary for the Past Weeks

 TemperatureHumidityPressure
High54 °F (Jan 31, 11:50 PM)100% (Jan 31, 6:20 PM)30.30 "Hg (Jan 31, 6:20 PM)
Low34 °F (Feb 12, 8:20 PM)57% (Feb 3, 1:50 PM)28.77 "Hg (Feb 9, 4:20 PM)
Average44 °F83%29.78 "Hg
* Reported Jan 28 11:20 PM — Feb 12 11:20 PM, Korschenbroich, Weather by CustomWeather, © 2016

Note: Actual official high and low records may vary slightly from our data, if they occured in-between our weather recording intervals... More about our weather records

Advertising

Korschenbroich Weather History for the Previous 24 Hours

 ConditionsComfort  
Time TempWeatherWind HumidityBarometerVisibility
11:20 PM
Fri, Feb 12
34 °FClear.8 mph81%29.42 "Hg10 mi
10:20 PM34 °FClear.6 mph81%29.42 "Hg10 mi
9:50 PM34 °FClear.6 mph81%29.42 "Hg10 mi
9:20 PM34 °FPassing clouds.6 mph81%29.42 "HgN/A
8:50 PM34 °FPassing clouds.7 mph81%29.42 "HgN/A
8:20 PM34 °FPassing clouds.6 mph81%29.42 "HgN/A
7:50 PM36 °FPassing clouds.6 mph75%29.42 "HgN/A
7:20 PM37 °FPassing clouds.5 mph70%29.42 "HgN/A
6:50 PM37 °FPassing clouds.5 mph75%29.45 "HgN/A
6:20 PM37 °FPassing clouds.6 mph75%29.45 "HgN/A
5:50 PM39 °FPassing clouds.6 mph65%29.45 "HgN/A
5:20 PM41 °FPartly sunny.10 mph61%29.45 "HgN/A
4:50 PM41 °FPartly sunny.10 mph61%29.45 "HgN/A
4:20 PM41 °FPartly sunny.12 mph61%29.45 "HgN/A
3:50 PM41 °FScattered clouds.12 mph61%29.45 "HgN/A
3:20 PM43 °FScattered clouds.9 mph61%29.45 "HgN/A
2:50 PM43 °FScattered clouds.12 mph61%29.47 "HgN/A
2:20 PM41 °FPartly sunny.14 mph66%29.47 "HgN/A
1:50 PM41 °FPartly sunny.10 mph66%29.50 "HgN/A
1:20 PM41 °FPartly sunny.13 mph66%29.50 "HgN/A
12:50 PM41 °FScattered clouds.15 mph70%29.50 "HgN/A
12:20 PM43 °FPassing clouds.16 mph66%29.53 "HgN/A
11:50 AM43 °FPassing clouds.13 mph66%29.53 "HgN/A
11:20 AM41 °FPassing clouds.13 mph70%29.53 "HgN/A
10:50 AM41 °FPassing clouds.15 mph70%29.53 "HgN/A
10:20 AM39 °FPassing clouds.14 mph75%29.56 "HgN/A
9:50 AM39 °FScattered clouds.15 mph75%29.56 "HgN/A
9:20 AM37 °FPartly sunny.15 mph81%29.56 "HgN/A
8:50 AM37 °FPartly sunny.13 mph81%29.59 "HgN/A
8:20 AM39 °FPartly sunny.10 mph81%29.59 "HgN/A
7:50 AM37 °FPartly cloudy.10 mph93%29.59 "HgN/A
7:20 AM39 °FPassing clouds.8 mph87%29.59 "HgN/A
6:20 AM39 °FOvercast.8 mph87%29.59 "HgN/A
5:50 AM39 °FPassing clouds.9 mph87%29.62 "HgN/A
5:20 AM39 °FSprinkles. Passing clouds.10 mph87%29.62 "HgN/A
4:50 AM39 °FSprinkles. Passing clouds.9 mph87%29.62 "HgN/A
4:20 AM39 °FPassing clouds.8 mph87%29.62 "HgN/A
3:50 AM39 °FSprinkles. Passing clouds.5 mph87%29.62 "HgN/A
3:20 AM39 °FSprinkles. Passing clouds.5 mph87%29.65 "HgN/A
2:50 AM39 °FPassing clouds.8 mph87%29.65 "HgN/A
2:20 AM39 °FPartly cloudy.7 mph87%29.65 "HgN/A
1:50 AM39 °FPartly cloudy.7 mph87%29.65 "HgN/A
1:20 AM39 °FPassing clouds.8 mph87%29.65 "HgN/A
12:50 AM39 °FPassing clouds.6 mph87%29.65 "HgN/A
12:20 AM39 °FPassing clouds.6 mph87%29.68 "HgN/A
Weather by CustomWeather, © 2016

See weather overviewHow to use our weather pages